Flag for Portugal Weather past 2 weeks in Viseu, Portugal

Now
58 °F

Cool.


Feels Like: 58 °F
Forecast: 51 / 83 °F
Wind: 2 mph from North

Location: Viseu

Current Time: Aug 4, 2015 at 8:31:51 AM

Latest Report: Aug 4, 2015 at 7:00 AM


Visibility: N/A

Pressure: 30.09 "Hg

Humidity: 86%

Dew point: 54 °F

Location of ViseuLocation

Historic Weather in Viseu — Graph

°F

Viseu temperature yesterday

Maximum temperature yesterday: 83 °F (at 5:00 PM)
Minimum temperature yesterday: 62 °F (at 11:00 PM)
Average temperature yesterday: 71 °F

Past Weeks' High & Low Weather Summary

 TemperatureHumidityPressure
High87 °F (Jul 20, 3:00 PM)100% (Jul 21, 7:00 AM)30.11 "Hg (Jul 21, 7:00 AM)
Low53 °F (Jul 25, 6:00 AM)15% (Aug 3, 12:00 PM)29.77 "Hg (Jul 31, 5:00 PM)
Average69 °F67%29.98 "Hg
* Reported Jul 20 7:00 AM — Aug 4 7:00 AM, Viseu, Weather by CustomWeather, © 2015

Note: Actual official high and low records may vary slightly from our data, if they occured in-between our weather recording intervals... More about our weather records

Advertising

Viseu weather history for previous 24 hours

 ConditionsComfort  
Time TempWeatherWind HumidityBarometerVisibility
7:00 AM
Tue, Aug 4
58 °FCool.2 mph86%30.09 "HgN/A
6:00 AM56 °FCool.2 mph96%30.09 "HgN/A
5:00 AM56 °FCool.2 mph98%30.09 "HgN/A
4:00 AM56 °FCool.3 mph96%30.10 "HgN/A
3:00 AM58 °FCool.3 mph92%30.09 "HgN/A
2:00 AM59 °FCool.3 mph87%30.10 "HgN/A
1:00 AM59 °FCool.3 mph88%30.10 "HgN/A
12:00 AM60 °FCool.6 mph87%30.09 "HgN/A
11:00 PM
Mon, Aug 3
62 °FCool.6 mph86%30.07 "HgN/A
9:00 PM65 °FMild.9 mph80%30.03 "HgN/A
8:00 PM70 °FMild.9 mph73%29.99 "HgN/A
7:00 PM75 °FPassing clouds.7 mph61%29.96 "Hg25 mi
6:00 PM78 °FScattered clouds.9 mph53%29.94 "Hg25 mi
5:00 PM83 °FWarm.7 mph41%29.92 "HgN/A
3:00 PM83 °FPassing clouds.3 mph25%29.94 "Hg25 mi
2:00 PM83 °FPleasantly warm.3 mph25%29.94 "HgN/A
1:00 PM80 °FScattered clouds.3 mph31%29.96 "Hg25 mi
12:00 PM76 °FScattered clouds.3 mph15%29.98 "Hg25 mi
11:00 AM73 °FPartly sunny.2 mph31%29.98 "Hg25 mi
10:00 AM74 °FPartly sunny.2 mph23%29.97 "Hg25 mi
9:00 AM72 °FMild.2 mph18%29.96 "HgN/A
8:00 AM66 °FMild.3 mph34%29.97 "HgN/A
Weather by CustomWeather, © 2015

See weather overviewHow to use our weather pages